Dewpoint
10 10 10 10 10 10 10 9 9 9 9 8 6 5 5 4 4 2 -2 -4 -7 -9 -13 -16 -17 -17 -17 -8 -13 -20 -18 -11 -6 -5 -3 -5 -3 -2 -4 -4 -4 -4 -5 -4 -4 -3 -4
9 9 9 9 9 9 9 9 8 7 5 4 2 0 -0 -0 -2 -3 -5 -8 -11 -14 -17 -18 -18 -17 -15 -10 -17 -18 -15 -12 -8 -2 -2 -2 -2 -2 -4 -4 -4 -3 -3 -3 -3 -4 -3
6 6 7 6 5 4 4 2 1 -1 -2 -3 -3 -4 -3 -4 -5 -7 -9 -12 -16 -18 -18 -18 -18 -19 -14 -11 -19 -17 -15 -13 -7 -2 -2 -1 -1 -4 -3 -3 -2 -2 -2 -4 -4 -4 -4
5 5 5 3 2 1 0 -1 -3 -3 -5 -6 -6 -6 -5 -6 -8 -11 -14 -17 -18 -19 -19 -19 -19 -19 -7 -19 -17 -15 -11 -13 -13 -12 -2 1 1 -2 -2 -1 -2 -3 -2 -5 -4 -5 -5
4 5 5 4 4 3 1 -0 -1 -3 -5 -8 -9 -8 -8 -10 -13 -15 -17 -19 -19 -20 -20 -20 -17 -11 -9 -14 -5 -0 -1 2 -1 0 -1 1 0 -1 -1 -2 -2 -1 -7 -2 -3 -5 -5
3 4 3 3 3 2 2 0 -1 -1 -4 -8 -11 -12 -12 -13 -16 -17 -18 -20 -20 -20 -17 -14 -9 -3 -10 -10 -1 -1 0 1 2 -0 0 1 -1 -2 -2 -2 -7 -6 -3 -3 -4 -6 -6
2 2 3 3 3 2 0 -0 -1 -1 -3 -6 -7 -12 -13 -14 -17 -18 -19 -21 -10 -2 -10 -6 -8 -6 -8 -5 -4 0 1 3 1 -1 -3 -0 -2 -3 -7 -4 -2 -2 -2 -3 -4 -5 -4
3 1 1 3 3 2 2 1 -0 -4 -5 -2 -3 -8 -12 -14 -16 -18 -21 -8 -13 -10 -9 -9 -18 -5 -5 -9 -7 -2 1 1 -0 -5 -1 0 -1 -4 -1 1 0 -0 -0 -3 -6 -5 -3
3 2 2 2 2 2 1 0 1 -1 -1 -1 -1 -6 -9 -12 -13 -14 -19 -16 -19 -11 -3 -10 -4 -3 -3 -5 -10 -14 -2 -1 -3 -4 -2 -4 -5 -2 1 0 0 -2 -2 -4 -3 -5 -4
1 1 2 2 2 1 1 0 1 1 0 0 -1 -7 -9 -10 -12 -12 -5 -10 -9 -8 -4 -10 -4 -0 2 -1 -4 -3 -6 -8 -5 -5 -5 -3 -6 -2 -2 -4 -4 -3 -5 -3 -3 -2 -1
1 1 2 2 2 2 2 2 2 2 1 -1 -2 -2 -4 -11 -8 -2 -4 -7 -5 -1 -7 -10 -1 1 2 -1 1 2 -2 -7 -10 -7 -4 -7 -2 -2 -1 -3 -4 -3 -3 -2 -1 0 0
1 1 -1 2 2 1 2 2 3 2 1 0 0 -1 -2 -6 -8 -3 -3 0 0 -2 -11 -9 0 2 1 -0 0 -1 -3 -2 -3 -5 -4 -7 -2 -2 -5 -4 -3 -2 -1 -1 -0 -0 -0
0 0 -1 -1 1 2 1 1 2 2 2 1 0 -1 -4 -5 -3 1 1 3 -1 -8 -19 -11 -3 0 -0 -2 0 0 -3 -1 -3 -2 -2 -4 -4 -5 -3 -2 -2 -1 0 -1 -1 2 -1
1 -1 -2 0 -1 0 0 -0 0 1 1 2 -0 -2 -4 -6 -4 1 3 2 -3 -21 -22 -11 -8 -1 -2 -2 -2 -0 -0 -1 -2 -3 -3 -4 -4 -2 -2 -2 -3 -1 -1 0 -0 -2 -3
0 1 -0 1 1 1 0 -0 -0 -0 0 1 -1 -1 -2 -3 -3 1 3 2 -17 -23 -16 -12 -12 -16 -11 -3 -3 -2 -1 -2 -4 -2 -2 -2 -3 -4 -2 -2 -3 0 2 -3 1 -1 1
-1 -1 1 1 1 2 2 0 -0 -1 0 -0 0 -0 -2 -3 -2 -1 2 -4 -10 -9 -6 -8 -17 -14 -16 -16 -8 -6 -6 -5 -2 -3 -2 -2 -5 -10 -5 -3 -2 -1 -3 1 2 2 0
-1 -2 0 1 1 0 1 1 0 0 0 -0 0 0 -2 -4 -1 1 2 -4 -8 -5 -5 -8 -11 -10 -10 -8 -8 -9 -11 -4 -3 -3 -5 -3 -1 -6 -1 -2 -5 -1 0 1 0 0 2
-0 -1 -2 0 1 1 1 1 1 1 1 0 -0 1 -3 -3 0 -2 -0 -5 -5 -6 -5 -6 -5 -6 -10 -9 -6 -7 -7 -4 -3 -6 -8 -8 -6 -3 -6 -6 -2 -2 -1 -1 4 2 4
-1 -1 -2 -2 -0 0 1 0 1 1 1 0 0 -0 -2 0 1 0 -6 -5 -5 -4 -7 -6 -7 -7 -10 -8 -7 -9 -9 -8 -4 -6 -4 -4 -6 -4 -9 -6 -1 1 -0 -0 3 5 5
-3 -3 -4 -3 -4 -1 -1 0 1 1 -0 0 -0 1 -1 0 -2 -3 -5 -6 -5 -4 -6 -4 -4 -3 -6 -6 -7 -7 -4 -1 -1 -2 -1 0 -0 -1 -4 -8 -4 1 -1 -1 2 4 2
-3 -5 -6 -5 -2 -2 -3 -0 0 -0 0 -0 -1 1 -1 0 0 -2 -4 -6 -6 -5 -6 -6 -6 -4 -5 -4 -5 -4 -5 -6 -5 -5 -4 -2 -0 -2 -3 -4 -3 -2 -2 -3 -2 -0 3
-6 -6 -6 -5 -4 -4 -4 -1 -1 0 0 -0 -1 -0 -1 -4 -3 -2 -3 -3 -6 -7 -7 -6 -5 -6 -6 -5 -6 -7 -6 -5 -5 -6 -3 -1 -0 -1 -1 -4 -3 -2 -4 -4 -4 -2 -2
-6 -6 -6 -5 -6 -7 -5 -4 -3 -1 -1 -1 -1 -1 -2 -3 -2 -1 -1 -3 -6 -6 -7 -7 -7 -5 -4 -5 -5 -4 -3 -4 -3 -3 -2 -2 -0 -0 2 -3 -0 0 -3 -4 -4 -5 -3
-7 -7 -6 -6 -7 -7 -5 -5 -3 -2 -0 -1 -1 -1 -2 -1 -1 -1 -4 -4 -5 -6 -5 -6 -5 -4 -5 -3 -4 -3 -4 -4 -4 -4 -4 -2 -2 0 2 -1 4 -5 -5 -4 -2 -3 -3
-9 -8 -7 -7 -6 -6 -6 -3 -3 -2 -1 -1 -0 -1 -2 -1 -4 -4 -4 -5 -5 -5 -4 -5 -6 -6 -5 -4 -3 -2 -4 -4 -5 -6 -5 -4 -1 1 2 -2 -4 -5 -2 2 1 -3 -5
-8 -7 -7 -6 -6 -5 -4 -3 -3 -3 -1 -1 -1 -1 -2 -2 -3 -6 -4 -5 -3 -3 -4 -4 -4 -3 -3 -2 -2 -1 -4 -7 -6 -2 -2 -4 -4 1 -2 -1 -1 -0 -3 -4 -4 0 -5
-9 -8 -7 -6 -6 -6 -6 -5 -3 -2 -2 -2 -2 -1 -1 -1 -4 -5 -4 -4 -5 -5 -4 -6 -3 -2 -2 -0 1 -2 -4 -8 -5 -5 -2 1 3 3 2 2 -3 -7 -3 -5 1 0 -3
-9 -8 -8 -7 -7 -6 -6 -7 -5 -4 -3 -2 -2 -2 -1 -1 -3 -5 -5 -5 -5 -6 -6 -6 -4 -2 -0 1 0 -2 -2 -6 -4 -5 -5 -5 -0 2 3 4 4 -3 -3 -3 -1 -2 -2
-6 -5 -7 -8 -8 -7 -6 -6 -5 -3 -2 -2 -2 -2 -2 -2 -2 -4 -4 -4 -5 -5 -5 -4 -5 -1 -1 1 -1 -1 1 -1 -3 -1 -5 2 1 1 0 -1 -1 -3 -1 -2 -3 -3 -2
Wind_Speed
32 30 30 29 28 26 26 25 24 23 22 23 22 21 21 20 18 18 19 19 19 19 18 18 19 19 18 8 10 13 11 11 12 11 5 5 4 3 5 2 4 7 3 5 6 9 9
27 30 29 29 27 27 26 23 22 21 21 21 20 19 19 18 18 17 18 17 17 17 17 17 19 19 14 12 12 11 7 6 6 1 2 2 3 3 2 5 6 2 5 10 9 12 10
15 14 16 16 14 14 16 16 17 17 18 18 18 17 18 17 16 15 16 16 15 15 16 17 18 18 17 16 12 10 9 9 8 4 3 4 2 5 2 3 2 4 9 8 5 2 4
9 12 14 15 13 13 13 13 14 15 15 15 16 16 15 15 14 14 14 14 14 14 16 18 18 16 11 15 14 12 10 13 13 9 6 6 4 4 5 1 4 6 5 7 7 3 1
12 13 12 15 14 15 14 13 13 14 14 15 15 14 14 13 12 12 12 13 13 14 17 18 17 7 9 6 1 2 4 3 5 6 10 5 4 5 5 7 6 6 8 5 4 2 2
17 19 18 17 15 15 14 13 14 14 14 16 16 14 13 12 10 11 12 12 14 15 18 17 15 7 7 3 4 3 4 7 4 11 9 6 5 8 6 8 7 5 7 7 7 2 9
18 18 20 20 20 19 19 19 18 16 14 14 15 13 12 11 9 9 9 8 5 4 5 9 6 7 6 4 3 4 6 5 8 7 7 9 8 10 8 8 4 5 9 13 11 9 11
19 20 22 20 20 20 18 18 18 16 15 13 13 11 10 9 9 8 7 2 5 5 11 14 19 20 17 14 6 8 9 9 10 10 6 6 12 9 4 4 7 10 12 14 11 5 8
18 18 20 23 22 20 21 17 15 13 13 13 13 11 9 9 9 8 6 6 8 5 7 7 7 8 5 9 9 15 12 8 11 11 11 13 3 1 8 8 11 12 12 13 11 11 15
22 22 21 21 20 17 16 13 13 9 7 13 14 10 9 6 6 7 4 6 5 2 4 5 4 3 3 5 5 6 10 12 8 11 9 10 13 8 8 11 10 12 7 11 11 8 7
27 24 24 24 22 20 20 17 17 14 10 8 7 5 5 8 4 5 5 5 7 2 5 5 5 4 4 4 1 2 4 8 11 8 6 1 5 7 12 12 4 7 2 5 8 11 13
27 27 27 27 27 23 21 20 21 19 15 12 7 5 6 9 9 10 9 8 5 3 8 4 5 5 6 6 4 7 5 3 2 5 7 9 1 5 6 4 8 1 7 9 8 9 10
31 32 30 31 32 28 26 25 21 19 19 15 11 7 8 9 7 11 12 7 3 7 3 6 4 5 3 6 7 6 9 7 3 5 7 6 13 8 9 9 6 11 6 5 6 6 8
27 30 34 30 29 32 28 27 26 22 18 18 12 9 10 12 11 13 12 3 8 3 6 1 3 6 4 7 5 7 6 6 7 5 2 5 6 10 9 12 4 12 11 6 7 7 9
27 30 31 32 32 31 31 28 27 24 22 19 16 14 14 14 14 16 9 6 10 9 3 4 4 5 5 5 2 6 7 7 3 10 6 4 7 4 7 3 9 7 8 9 15 16 12
37 34 32 35 30 31 35 29 27 26 25 24 19 15 16 15 14 11 6 8 8 1 1 3 9 3 11 7 7 6 9 4 4 1 5 1 9 8 3 5 7 9 3 7 7 9 17
39 36 32 30 34 32 32 31 30 28 28 26 18 10 13 17 15 8 7 9 7 4 1 4 5 5 3 5 4 7 4 6 3 5 3 1 4 5 4 9 16 7 11 9 11 11 13
16 27 28 30 28 32 34 31 33 33 31 30 24 4 18 25 11 8 12 7 4 6 8 4 3 5 9 5 5 6 7 2 4 4 6 4 5 11 15 8 5 9 15 16 12 13 7
25 24 27 26 32 27 35 31 33 39 40 36 19 7 21 27 9 11 12 14 9 5 9 4 7 8 6 11 5 8 8 5 6 3 4 1 7 12 18 12 13 10 13 12 6 3 13
18 20 23 25 26 26 26 32 39 39 35 36 14 5 9 23 16 18 15 16 17 9 14 4 2 5 8 9 10 7 8 4 3 4 3 2 10 13 14 14 12 11 12 14 17 11 17
16 20 21 23 26 27 27 33 33 37 40 38 13 6 11 7 13 14 18 9 19 13 10 13 12 12 10 11 12 14 13 12 12 8 8 5 13 15 18 19 18 20 21 21 22 22 20
22 22 22 23 24 23 29 27 31 33 39 36 12 7 8 12 23 18 16 20 17 13 16 11 13 7 13 18 16 11 8 9 11 9 10 4 11 10 18 16 18 21 24 25 24 26 26
22 23 24 25 25 26 28 30 33 31 31 11 20 20 13 13 17 13 18 19 14 15 16 16 14 11 11 12 10 13 14 16 17 14 12 13 10 9 19 14 10 13 26 25 23 24 22
23 24 25 26 26 26 27 33 32 43 35 34 24 21 15 8 13 19 17 20 19 15 15 10 13 13 11 10 13 17 21 23 24 22 22 19 17 11 15 15 14 16 5 9 13 18 19
21 24 24 25 25 26 27 29 31 36 34 51 33 23 14 9 20 17 18 15 17 17 16 16 16 15 13 12 9 10 11 15 20 24 23 21 18 11 12 15 19 28 11 5 7 20 11
22 22 24 24 25 26 25 27 30 36 32 40 35 32 23 13 16 23 18 18 10 10 10 12 13 10 9 6 6 10 9 11 7 4 5 17 20 14 15 17 20 18 3 6 4 14 10
23 22 22 22 23 25 26 26 28 28 28 30 27 32 20 12 9 24 18 15 17 11 5 4 6 9 12 5 9 12 16 15 18 19 11 5 6 14 16 17 16 11 11 11 8 4 4
23 23 22 23 23 25 26 26 28 27 23 31 29 37 25 9 15 17 19 15 16 19 8 6 6 8 6 6 6 10 10 12 16 20 16 16 10 10 10 12 18 13 10 8 2 5 6
23 23 21 25 24 23 23 23 28 28 25 29 34 33 21 10 7 13 14 14 13 10 13 10 5 4 6 4 6 5 6 4 14 15 13 11 13 10 9 6 2 19 3 5 6 8 8
Wind_Direction
229 229 220 234 236 236 239 244 248 251 256 262 263 264 268 271 276 281 286 291 296 302 308 309 312 314 323 304 275 283 268 254 261 274 283 285 249 241 256 254 253 244 252 255 260 275 269
212 216 219 220 219 230 237 239 246 251 257 259 261 262 265 268 271 276 282 289 296 302 307 308 308 313 321 281 268 270 265 253 260 225 134 158 208 212 262 262 258 85 273 278 279 273 277
223 222 218 226 228 234 233 239 248 247 253 257 259 257 260 263 268 275 282 288 293 299 300 302 303 313 302 273 278 271 260 248 236 201 183 152 164 228 192 229 263 284 280 265 271 257 160
232 237 230 234 230 241 251 248 248 253 253 256 258 258 260 268 274 275 279 285 290 294 294 296 300 309 274 281 277 278 272 251 239 246 201 186 168 205 229 203 236 259 262 263 127 237 120
223 243 244 253 240 239 243 255 260 255 256 254 253 257 257 258 267 276 279 286 293 295 292 295 302 305 272 279 280 162 149 141 164 196 170 151 176 230 200 227 241 185 274 248 206 201 262
244 245 249 249 253 249 246 251 258 258 255 253 252 251 250 253 261 272 285 292 300 294 286 284 275 269 248 260 250 185 154 147 127 138 152 177 204 239 222 222 270 312 246 216 253 155 290
246 248 250 253 255 255 252 260 261 256 247 245 254 254 250 258 260 271 283 310 323 315 283 243 271 261 274 261 286 247 190 162 145 192 222 200 222 231 251 238 298 263 264 275 276 269 292
234 229 237 245 243 243 247 247 248 238 240 240 247 254 254 262 265 269 277 240 251 264 289 261 264 260 257 254 281 221 190 202 215 240 166 200 241 260 280 236 235 247 263 269 280 275 267
242 232 226 233 243 248 258 248 236 230 227 222 239 251 248 253 260 263 256 247 262 292 264 277 239 253 248 227 242 234 195 221 233 242 223 255 3 23 202 221 239 244 266 274 278 295 277
238 238 240 231 224 227 228 213 216 219 236 232 233 239 230 239 261 233 207 233 249 236 272 166 193 198 155 177 228 232 224 222 209 248 236 260 265 230 223 246 255 270 269 264 269 273 276
237 234 232 234 227 225 227 221 216 208 210 224 238 234 209 209 202 188 209 187 144 144 278 122 131 152 166 206 136 88 168 198 232 198 195 167 196 211 229 248 239 277 267 254 268 269 281
233 235 237 230 230 228 226 225 222 215 206 210 212 262 245 219 193 188 171 153 128 214 237 140 133 181 186 180 154 127 154 172 157 197 230 265 259 233 239 222 230 195 233 239 256 263 259
239 235 236 233 228 224 225 228 223 218 207 210 210 226 236 222 200 179 165 144 203 225 112 155 156 185 202 162 160 174 169 166 174 187 207 214 233 220 215 222 202 219 250 269 246 207 257
240 238 234 230 228 225 225 225 223 222 218 202 215 211 219 210 182 179 164 179 216 268 204 99 151 165 194 164 173 169 169 197 206 223 248 256 205 196 174 219 268 212 231 253 265 263 276
242 235 228 226 226 221 220 219 215 215 211 219 205 199 205 200 185 177 192 210 223 229 150 175 191 250 193 176 240 188 218 243 225 207 241 224 225 156 203 190 210 149 222 270 275 271 267
240 237 228 222 220 218 215 210 213 209 204 202 188 189 203 196 192 191 203 237 247 224 272 213 244 254 251 222 215 221 205 132 118 76 228 262 269 255 203 205 211 251 359 239 228 265 257
227 231 227 224 219 217 212 212 209 208 199 197 178 171 203 191 177 191 212 220 237 217 206 251 238 235 247 218 245 220 237 110 118 90 18 298 258 221 206 220 250 200 232 241 276 256 266
220 223 224 222 210 211 209 210 210 208 200 192 182 177 180 175 172 202 225 212 220 190 221 237 277 245 245 232 244 244 252 358 95 351 305 312 285 269 257 271 252 258 266 277 252 252 256
230 223 222 224 227 226 210 207 203 201 198 181 168 151 176 171 197 211 218 221 229 199 215 195 218 235 241 245 257 239 249 300 342 336 328 348 244 271 263 221 228 243 245 242 231 288 260
224 227 222 219 226 230 227 212 207 208 199 188 159 154 166 193 217 221 213 221 222 212 228 186 232 237 227 236 238 250 229 173 3 327 338 248 253 250 266 284 322 270 264 254 240 251 261
227 227 226 221 216 222 228 216 213 211 205 196 177 188 173 182 208 218 219 225 221 220 219 215 228 231 224 236 230 238 244 260 269 266 282 255 265 269 270 271 275 274 276 271 265 254 253
238 234 229 223 223 222 224 225 225 203 201 193 185 156 169 190 193 209 210 225 229 218 227 214 234 202 231 243 254 264 262 257 271 259 259 230 268 278 271 268 265 268 267 263 259 260 264
238 235 232 228 226 225 225 227 229 225 214 201 184 188 169 196 188 188 217 220 221 221 223 230 246 242 243 253 275 274 276 272 267 268 260 267 269 272 272 285 291 272 256 261 261 257 251
237 234 231 229 229 227 224 222 223 221 217 214 193 183 188 199 191 204 201 216 224 208 225 211 227 244 264 290 280 275 264 260 259 256 250 253 251 260 265 272 250 265 305 289 278 265 255
240 237 234 232 229 228 228 226 228 220 217 210 206 185 190 203 205 207 207 207 212 217 229 242 248 253 260 280 276 275 260 253 250 248 239 232 238 245 250 258 267 277 255 206 215 267 254
235 233 230 229 226 223 222 223 223 217 216 197 202 191 190 198 212 208 197 194 185 196 215 234 235 229 241 229 226 239 239 251 258 242 229 232 227 231 239 246 260 271 141 187 187 267 213
233 232 228 225 225 225 225 224 222 214 220 232 216 194 180 181 187 192 198 204 204 193 215 187 185 203 205 220 223 235 243 241 247 250 229 194 207 230 233 242 257 239 153 156 205 296 149
224 225 225 222 222 221 220 220 223 220 216 215 196 191 188 166 170 181 192 181 184 201 207 160 190 208 192 225 239 224 242 237 240 249 253 246 228 229 235 240 247 137 144 218 133 122 173
222 223 222 220 218 219 217 212 212 208 211 212 187 182 178 159 153 178 193 196 196 191 208 202 210 160 219 249 230 226 235 241 238 248 224 242 233 244 225 259 113 186 35 197 142 170 177
Height
1519 1522 1523 1526 1528 1530 1532 1532 1534 1534 1537 1538 1538 1538 1539 1539 1538 1537 1537 1537 1537 1536 1535 1535 1532 1531 1528 1528 1525 1519 1519 1519 1521 1521 1521 1523 1524 1523 1519 1520 1521 1519 1521 1524 1524 1522 1520
1511 1514 1516 1519 1521 1524 1527 1527 1529 1530 1532 1534 1535 1535 1535 1536 1535 1533 1534 1534 1534 1534 1532 1531 1530 1529 1526 1526 1518 1518 1517 1518 1519 1520 1520 1521 1523 1523 1522 1522 1520 1521 1522 1521 1520 1518 1516
1507 1509 1511 1514 1516 1519 1520 1522 1526 1525 1529 1531 1532 1531 1533 1533 1531 1530 1531 1531 1530 1531 1530 1530 1528 1526 1524 1521 1516 1516 1515 1515 1517 1518 1520 1519 1522 1523 1522 1521 1522 1521 1520 1513 1512 1515 1514
1505 1507 1507 1513 1513 1516 1517 1519 1521 1523 1525 1527 1528 1528 1528 1530 1528 1527 1528 1529 1528 1528 1528 1527 1526 1523 1522 1515 1514 1513 1512 1511 1514 1515 1520 1518 1520 1522 1520 1521 1521 1517 1518 1508 1510 1512 1517
1502 1505 1506 1510 1511 1512 1512 1516 1518 1519 1521 1525 1523 1525 1527 1525 1525 1527 1526 1526 1526 1525 1525 1524 1524 1523 1518 1515 1514 1511 1511 1512 1511 1514 1518 1519 1522 1520 1519 1513 1510 1512 1503 1510 1507 1511 1511
1498 1501 1505 1506 1509 1509 1510 1511 1515 1518 1518 1521 1521 1522 1524 1522 1521 1523 1525 1522 1524 1521 1522 1521 1520 1525 1514 1516 1514 1511 1511 1511 1513 1516 1519 1519 1520 1516 1512 1507 1498 1496 1506 1507 1509 1504 1508
1493 1497 1500 1503 1505 1507 1506 1508 1511 1514 1515 1517 1519 1519 1521 1521 1518 1520 1523 1522 1524 1521 1520 1519 1518 1510 1512 1512 1512 1513 1511 1513 1513 1514 1510 1517 1514 1508 1498 1502 1504 1509 1509 1507 1504 1505 1511
1488 1492 1494 1499 1501 1504 1505 1506 1508 1509 1511 1514 1517 1518 1518 1517 1518 1519 1520 1520 1520 1521 1518 1511 1510 1509 1505 1510 1513 1510 1512 1514 1513 1506 1509 1515 1507 1503 1508 1510 1510 1508 1508 1504 1500 1506 1509
1484 1487 1489 1494 1497 1500 1502 1503 1506 1507 1509 1509 1514 1514 1516 1515 1517 1517 1518 1519 1518 1517 1519 1505 1502 1506 1504 1508 1508 1508 1509 1509 1508 1505 1505 1503 1501 1507 1510 1508 1508 1504 1507 1502 1504 1503 1502
1478 1481 1486 1489 1491 1495 1499 1499 1503 1506 1507 1509 1510 1511 1513 1514 1518 1517 1517 1516 1514 1517 1512 1494 1501 1502 1502 1503 1506 1507 1505 1507 1505 1504 1503 1503 1504 1506 1505 1507 1505 1505 1501 1505 1506 1505 1496
1474 1474 1479 1483 1488 1489 1495 1497 1500 1500 1505 1507 1510 1510 1509 1513 1513 1517 1516 1516 1514 1518 1506 1498 1499 1500 1499 1502 1503 1502 1503 1507 1501 1500 1506 1498 1503 1504 1505 1503 1506 1505 1506 1506 1505 1502 1497
1468 1469 1473 1477 1482 1486 1490 1493 1496 1498 1500 1504 1506 1509 1510 1513 1511 1514 1513 1517 1515 1517 1500 1491 1496 1498 1498 1497 1499 1500 1504 1506 1504 1502 1503 1498 1504 1503 1498 1503 1506 1507 1506 1501 1500 1497 1493
1461 1463 1466 1470 1475 1480 1485 1489 1491 1495 1497 1501 1503 1506 1510 1512 1511 1512 1513 1516 1517 1500 1487 1489 1488 1492 1490 1489 1494 1494 1497 1497 1496 1502 1498 1497 1498 1499 1501 1500 1503 1505 1505 1497 1491 1488 1482
1452 1455 1460 1464 1468 1473 1478 1483 1485 1491 1495 1497 1501 1503 1506 1508 1510 1511 1513 1517 1509 1482 1483 1488 1487 1488 1484 1486 1487 1490 1493 1491 1495 1495 1493 1490 1493 1497 1496 1493 1491 1497 1497 1496 1498 1482 1474
1445 1449 1452 1456 1460 1466 1472 1476 1481 1486 1489 1494 1498 1500 1504 1505 1508 1510 1514 1509 1486 1481 1485 1486 1489 1484 1483 1486 1484 1485 1488 1487 1486 1491 1495 1493 1494 1493 1494 1493 1492 1496 1500 1489 1491 1484 1487
1438 1442 1445 1449 1453 1458 1463 1470 1475 1480 1485 1488 1494 1498 1500 1503 1506 1509 1510 1496 1488 1489 1490 1488 1486 1485 1481 1479 1485 1484 1482 1486 1493 1494 1494 1493 1493 1483 1487 1494 1492 1491 1488 1495 1493 1495 1481
1426 1433 1437 1440 1444 1451 1456 1463 1470 1475 1479 1485 1490 1494 1496 1500 1506 1507 1501 1491 1489 1491 1492 1490 1486 1486 1486 1485 1483 1483 1482 1490 1492 1497 1496 1494 1491 1486 1490 1487 1482 1486 1489 1490 1486 1484 1483
1418 1425 1429 1433 1438 1443 1449 1456 1463 1470 1473 1480 1482 1488 1491 1495 1503 1500 1493 1491 1491 1490 1492 1491 1493 1490 1489 1487 1488 1488 1489 1490 1496 1499 1497 1496 1493 1488 1481 1479 1485 1484 1481 1479 1488 1480 1485
1415 1417 1423 1428 1432 1436 1442 1449 1455 1460 1463 1469 1475 1482 1486 1490 1489 1491 1487 1488 1491 1491 1490 1490 1490 1492 1490 1490 1494 1490 1490 1495 1496 1495 1494 1494 1490 1489 1479 1477 1483 1482 1478 1481 1492 1498 1486
1409 1414 1418 1422 1427 1430 1435 1441 1447 1452 1456 1462 1469 1476 1483 1484 1482 1481 1482 1483 1486 1490 1490 1493 1491 1492 1491 1492 1492 1491 1492 1495 1498 1498 1499 1499 1491 1488 1479 1470 1473 1479 1476 1475 1481 1482 1468
1406 1410 1413 1417 1420 1425 1431 1436 1441 1444 1449 1456 1459 1460 1462 1470 1476 1479 1479 1477 1480 1483 1489 1490 1489 1489 1487 1489 1489 1489 1490 1492 1495 1496 1496 1496 1490 1485 1480 1478 1478 1474 1471 1469 1467 1463 1468
1401 1404 1408 1412 1416 1420 1424 1429 1431 1438 1442 1447 1451 1455 1459 1458 1470 1478 1474 1471 1475 1477 1484 1485 1486 1484 1488 1489 1488 1486 1489 1490 1490 1492 1491 1493 1488 1484 1478 1475 1473 1470 1463 1459 1457 1454 1452
1396 1400 1404 1407 1411 1414 1417 1420 1428 1433 1433 1432 1441 1449 1452 1455 1463 1472 1465 1468 1471 1477 1481 1482 1482 1484 1486 1487 1489 1491 1492 1491 1490 1488 1488 1487 1488 1487 1477 1472 1474 1470 1448 1448 1442 1440 1443
1392 1395 1398 1402 1404 1408 1412 1417 1423 1428 1430 1433 1436 1443 1449 1450 1456 1453 1460 1469 1471 1474 1476 1479 1482 1484 1488 1489 1490 1490 1488 1486 1484 1482 1485 1483 1482 1484 1474 1470 1469 1438 1443 1446 1441 1436 1436
1385 1388 1391 1394 1397 1401 1405 1410 1414 1419 1424 1424 1433 1438 1442 1444 1448 1453 1457 1463 1468 1472 1476 1479 1481 1485 1488 1490 1490 1487 1478 1475 1469 1468 1470 1473 1474 1477 1475 1458 1446 1436 1439 1448 1448 1430 1430
1380 1383 1385 1389 1392 1397 1400 1404 1408 1412 1417 1413 1424 1431 1438 1441 1439 1447 1455 1459 1462 1468 1473 1475 1480 1482 1485 1485 1485 1480 1469 1460 1456 1453 1457 1458 1464 1471 1463 1459 1451 1427 1438 1442 1444 1433 1428
1373 1376 1379 1383 1387 1391 1395 1398 1403 1408 1414 1414 1419 1427 1431 1438 1440 1444 1448 1453 1460 1463 1467 1470 1475 1476 1478 1477 1475 1467 1459 1456 1453 1450 1449 1457 1465 1461 1453 1452 1432 1425 1437 1441 1440 1428 1433
1367 1371 1374 1379 1383 1387 1391 1395 1399 1404 1409 1410 1416 1420 1428 1433 1437 1440 1446 1451 1456 1458 1460 1466 1471 1470 1473 1472 1466 1455 1451 1445 1444 1443 1442 1440 1447 1443 1445 1444 1433 1431 1439 1435 1431 1434 1437
1361 1365 1370 1374 1379 1383 1386 1390 1396 1400 1405 1408 1414 1420 1424 1429 1435 1440 1445 1448 1452 1455 1458 1461 1460 1464 1465 1463 1457 1452 1449 1444 1439 1437 1437 1444 1435 1433 1434 1421 1431 1432 1431 1432 1432 1434 1437